Location: Gwatt
(46.7204°N, 7.6223°E)
Time: 00:34:59
(UTC+00:00)

Envisat - Pass Details

Date: 01 December 2020
Orbit: 764 x 766 km, 98.1° (Epoch: 19 January)

Event Time Altitude Azimuth Distance (km) Brightness Sun altitude
Rises 05:17:32 0° 15° (NNE) 3,245 6.3 -15.9°
Reaches altitude 10° 05:19:53 10° 19° (NNE) 2,314 5.5 -15.5°
Maximum altitude 05:24:58 67° 102° (ESE) 830 3.4 -14.7°
Drops below altitude 10° 05:30:00 10° 185° (S) 2,296 5.6 -13.9°
Sets 05:32:18 0° 188° (S) 3,217 6.4 -13.5°
